Notices

What's New in latest Release from April 7th, 2021:

- Updated Glossary, including Speed of Maximum Gust, and Total Hourly Precipitation

- Updated national and regional climate services offices contacts and prices information

- Addition of station inventory lists for 1981-2010, 1971-2000, and 1961-1990 Normals.

If you haven't already, please take our survey and provide feedback about our website: https://eccc.sondage-survey.ca/f/LanguageSelection.aspx?s=442ca660-fcf1-47c0-95a9-59707d6fd709

Hourly Data Report for May 04, 2003

TORONTO CITY
ONTARIO

43°40'00.000" N
79°24'00.000" W
112.50 m
6158355
71508
XTO

Download Data

Hourly Data (May 2003)
Hourly Data Report for May 4, 2003
TIME
LST
Temp Definition
°C
Dew Point Definition
°C
Rel Hum Definition
%
Precip. Amount Definition
mm

Wind Dir Definition
10's deg

Wind Spd Definition
km/h
Visibility Definition
km
Stn Press Definition
kPa
Hmdx Definition


Wind Chill Definition


Weather Definition


00:00 8.8 -1.2 49   LegendMM LegendMM LegendMM 100.86     LegendNANA
01:00 8.0 -1.6 51   LegendMM LegendMM LegendMM 100.86     LegendNANA
02:00 7.6 -0.7 56   LegendMM LegendMM LegendMM 100.85     LegendNANA
03:00
04:00 7.5 -0.8 56   LegendMM LegendMM LegendMM 100.88     LegendNANA
05:00 7.6 -2.2 50   LegendMM LegendMM LegendMM 100.89     LegendNANA
06:00 7.3 -2.8 49   LegendMM LegendMM LegendMM 100.94     LegendNANA
07:00 8.5 -3.1 44   LegendMM LegendMM LegendMM 100.98     LegendNANA
08:00 11.5 0.9 48   LegendMM LegendMM LegendMM 100.98     LegendNANA
09:00 13.5 -2.5 33   LegendMM LegendMM LegendMM 100.97     LegendNANA
10:00 14.6 -3.8 28   LegendMM LegendMM LegendMM 100.93     LegendNANA
11:00 13.0 -2.2 35   LegendMM LegendMM LegendMM 100.82     LegendNANA
12:00 12.3 -3.0 34   LegendMM LegendMM LegendMM 100.76     LegendNANA
13:00 13.4 -2.6 33   LegendMM LegendMM LegendMM 100.81     LegendNANA
14:00 14.0 -4.2 28   LegendMM LegendMM LegendMM 100.73     LegendNANA
15:00 15.3 -5.9 23   LegendMM LegendMM LegendMM 100.73     LegendNANA
16:00 14.8 -5.4 24   LegendMM LegendMM LegendMM 100.69     LegendNANA
17:00 16.0 -8.4 18   LegendMM LegendMM LegendMM 100.62     LegendNANA
18:00 15.6 -10.6 15   LegendMM LegendMM LegendMM 100.53     LegendNANA
19:00 14.2 -11.0 16   LegendMM LegendMM LegendMM 100.54     LegendNANA
20:00 12.0 -5.9 28   LegendMM LegendMM LegendMM 100.57     LegendNANA
21:00 11.4 -5.9 29   LegendMM LegendMM LegendMM 100.57     LegendNANA
22:00 10.7 -4.8 33   LegendMM LegendMM LegendMM 100.51     LegendNANA
23:00 10.3 -4.2 36   LegendMM LegendMM LegendMM 100.42     LegendNANA

Notes on Data Quality.

Legend

  • E = Estimated
  • M = Missing
  • NA = Not Available*
  • [empty] = Indicates an unobserved value
Date modified: